Tracking 29892 objects as of 21-Nov-2024
HD Live streaming from Space Station
objects crossing your sky now

ESSA 4 (TOS-B)

Track ESSA 4 (TOS-B) now!
10-day predictions
ESSA 4 (TOS-B) is classified as:


NORAD ID: 2657
Int'l Code: 1967-006A
Perigee: 1,333.0 km
Apogee: 1,446.1 km
Inclination: 102.1 °
Period: 113.4 minutes
Semi major axis: 7760 km
RCS: 0.8222 m2 (medium)
Launch date: January 26, 1967
Source: United States (US)
Launch site: AIR FORCE WESTERN TEST RANGE (AFWTR)
Your satellite tracking list
Your tracking list is empty




NASA's NSSDC Master Catalog

Two Line Element Set (TLE):
1 02657U 67006A   24325.92043812 -.00000031  00000-0  91252-4 0  9992
2 02657 102.0623 125.3910 0072881 322.5834 192.4058 12.69876904679777
Source of the keplerian elements: AFSPC